#timestamp,LO_Frequency,Hit 
1501524015.0,286046941.7,N
1501524015.9,286046941.7,N
1501524035.8,286046941.4,N
1501524055.6,286046941.6,N
1501524075.4,286046941.6,N
1501524095.3,286046941.2,N
1501524115.1,286046943.2,N
1501524116.0,286046943.2,N
1501524135.8,286046940.9,N
1501524155.7,286046941.3,N
1501524175.5,286046941.5,N
1501524195.3,286046941.8,N
1501524215.1,286046943.4,N
1501524235.9,286046941.7,N
1501524255.7,286046941.6,N
1501524275.5,286046941.7,N
1501524295.4,286046941.6,N
1501524315.2,286046941.5,N
1501524335.0,286046941.8,N
1501524335.9,286046941.8,N
1501524355.8,286046943.7,N
1501524375.6,286046943.8,N
1501524395.4,286046945.1,N
1501524415.3,286046942.2,N
1501524435.1,286046942.1,N
1501524436.0,286046942.1,N
1501524455.8,286046944.2,N
1501524475.7,286046944.9,N
1501524495.5,286046944.3,N
1501524515.3,286046944.9,N
1501524535.1,286046945.2,N
1501524555.9,286046944.1,N
1501524575.7,286046944.1,N
1501524595.5,286046944.1,N
1501524615.4,286046944.2,N
1501524635.2,286046944.4,N
1501524655.0,286046944.5,N
1501524655.9,286046944.5,N
1501524675.8,286046944.4,N
1501524695.6,286046948.1,N
1501524715.4,286046947.6,N
1501524735.2,286046948.4,N
1501524755.1,286046945.7,N
1501524756.0,286046945.7,N
1501524775.8,286046946.2,N
1501524795.6,286046946.4,N
1501524815.5,286046945.4,N
1501524835.3,286046945.7,N
1501524855.1,286046946.6,N
1501524875.9,286046948.2,N
1501524895.7,286046948.0,N
1501524915.5,286046948.4,N
1501524935.4,286046945.6,N
1501524955.2,286046947.9,N
1501524975.0,286046949.5,N
1501524975.9,286046949.5,N
1501524995.8,286046947.2,N
1501525015.6,286046947.3,N
1501525035.4,286046949.0,N
1501525055.2,286046948.9,N
1501525075.1,286046949.1,N
1501525076.0,286046949.1,N
1501525095.8,286046948.9,N
1501525115.6,286046949.1,N
1501525135.5,286046949.8,N
1501525155.3,286046947.0,N
1501525175.1,286046949.7,N
1501525195.9,286046949.5,N
1501525215.7,286046948.7,N
1501525235.5,286046948.7,N
1501525255.4,286046948.7,N
1501525275.2,286046948.6,N
1501525295.0,286046949.5,N
1501525295.9,286046949.5,N
1501525315.8,286046949.1,N
1501525335.6,286046951.5,N
1501525355.4,286046951.4,N
1501525375.2,286046950.1,N
1501525395.1,286046951.0,N
1501525396.0,286046951.0,N
1501525415.8,286046950.6,N
1501525435.6,286046952.8,N
1501525455.5,286046952.7,N
1501525475.3,286046950.2,N
1501525495.1,286046952.0,N
1501525515.9,286046952.7,N
1501525535.7,286046953.0,N
1501525555.5,286046953.2,N
1501525575.4,286046952.3,N
1501525595.2,286046951.0,N
1501525615.0,286046951.3,N
1501525615.9,286046951.3,N
1501525635.7,286046950.9,N
1501525655.6,286046952.3,N
1501525675.4,286046953.0,N
1501525695.2,286046950.9,N
1501525715.1,286046952.8,N
1501525716.0,286046952.8,N
1501525735.8,286046954.4,N
1501525755.6,286046951.7,N
1501525775.5,286046952.1,N
1501525795.3,286046952.0,N
1501525815.1,286046952.0,N
1501525835.9,286046951.8,N
1501525855.7,286046956.3,N
1501525875.5,286046951.9,N
1501525895.3,286046952.4,N
1501525915.2,286046954.7,N
1501525935.0,286046953.7,N
1501525935.9,286046953.7,N
1501525955.7,286046956.0,N
1501525975.6,286046953.6,N
1501525995.4,286046952.6,N
1501526015.2,286046952.3,N
1501526035.1,286046954.3,N
1501526036.0,286046954.3,N
1501526055.8,286046955.8,N
1501526075.6,286046956.4,N
1501526095.5,286046955.4,N
1501526115.3,286046955.3,N
1501526135.1,286046953.8,N
1501526155.9,286046955.2,N
1501526175.7,286046958.0,N
1501526195.5,286046958.0,N
1501526215.3,286046957.4,N
1501526235.2,286046955.2,N
1501526255.0,286046957.5,N
1501526255.9,286046957.5,N
1501526275.7,286046956.0,N
1501526295.6,286046956.7,N
1501526315.4,286046956.4,N
1501526335.2,286046956.3,N
1501526355.1,286046954.9,N
1501526356.0,286046954.9,N
1501526375.8,286046956.7,N
1501526395.6,286046959.6,N
1501526415.5,286046959.6,N
1501526435.3,286046958.6,N
1501526455.1,286046960.4,N
1501526475.9,286046960.6,N
1501526495.7,286046962.6,N
1501526515.5,286046960.7,N
1501526535.3,286046962.4,N
1501526555.2,286046960.1,N
1501526575.0,286046959.8,N
1501526575.9,286046959.8,N
1501526595.7,286046958.1,N
1501526615.6,286046960.0,N
1501526635.4,286046958.9,N
1501526655.2,286046959.0,N
1501526675.1,286046959.4,N
1501526676.0,286046959.4,N
1501526695.8,286046958.3,N
1501526715.6,286046958.2,N
1501526735.5,286046962.8,N
1501526755.3,286046960.9,N
1501526775.1,286046958.2,N
1501526795.8,286046959.4,N
1501526815.7,286046956.5,N
1501526835.5,286046956.5,N
1501526855.3,286046958.5,N
1501526875.2,286046962.4,N
1501526895.9,286046964.4,N
1501526915.7,286046964.1,N
1501526935.6,286046964.4,N
1501526955.4,286046963.9,N
1501526975.2,286046961.7,N
1501526995.1,286046960.1,N
1501526996.0,286046960.1,N
1501527015.8,286046963.9,N
1501527035.6,286046964.8,N
1501527055.4,286046961.8,N
1501527075.3,286046960.2,N
1501527095.1,286046964.0,N
1501527115.8,286046964.4,N
1501527135.7,286046960.3,N
1501527155.5,286046962.8,N
1501527175.3,286046964.1,N
1501527195.2,286046964.4,N
1501527215.9,286046961.5,N
1501527235.7,286046961.5,N
1501527255.6,286046963.8,N
1501527275.4,286046963.8,N
1501527295.2,286046965.7,N
1501527315.0,286046963.2,N
1501527315.9,286046963.2,N
1501527335.8,286046963.7,N
1501527355.6,286046964.4,N
1501527375.4,286046963.8,N
1501527395.3,286046964.3,N
1501527415.1,286046965.9,N
1501527435.8,286046963.1,N
1501527455.7,286046966.0,N
1501527475.5,286046965.2,N
1501527495.3,286046963.1,N
1501527515.2,286046966.4,N
1501527535.9,286046967.5,N
1501527555.7,286046964.5,N
1501527575.5,286046966.3,N
1501527595.4,286046968.8,N
